Wind_Speed
38 37 37 34 33 34 34 33 34 35 34 35 35 33 32 32 32 31 29 28 26 26 27 27 26 27 26 26 25 22 19 15 11 11 11 14 22 18 9 5 5 5 6 8 8 9 8 7 9 7 5 2 1 2 3 3 1 1 1 2 4 4 4 4 4 3 6 7 5 7 7 6 6 2 2 2 1 5 6 5 6 8 9 10 15 21 24 23
38 39 37 35 34 34 35 34 34 35 35 35 35 32 31 32 32 32 29 29 27 25 27 27 27 27 26 26 25 23 19 13 8 9 17 19 21 23 18 11 8 7 8 8 8 9 8 6 7 6 4 2 2 2 2 3 2 2 2 2 4 2 1 3 6 5 4 8 7 7 6 3 7 6 3 3 4 6 6 5 6 8 7 9 15 20 21 22
39 40 38 35 34 35 35 35 35 35 35 34 33 32 31 30 31 31 30 29 27 25 26 26 27 26 26 26 24 24 17 7 5 10 22 24 20 21 20 17 13 11 10 9 11 11 11 9 7 6 3 3 3 3 2 2 3 2 3 2 3 3 5 6 8 6 4 8 9 7 3 3 6 6 3 3 6 6 5 7 7 7 8 8 12 17 20 19
40 40 38 35 35 36 35 34 34 34 35 34 32 32 31 29 29 29 30 29 27 25 25 26 27 26 27 27 25 23 11 1 5 8 21 24 20 19 17 17 14 13 11 11 14 14 16 14 8 5 4 3 4 4 3 3 3 2 3 2 2 4 5 6 6 6 5 4 7 7 4 4 5 4 3 4 6 5 4 7 8 9 12 11 11 15 18 18
42 41 38 35 36 37 35 33 33 34 35 34 31 30 30 29 28 28 29 29 27 25 24 25 26 26 28 27 25 22 11 2 4 9 23 22 18 19 16 17 16 16 15 13 16 16 16 14 7 5 3 3 4 5 5 5 3 1 2 1 4 3 5 3 5 5 5 2 7 8 6 5 4 3 4 4 2 2 1 2 2 7 15 14 13 15 15 16
42 41 39 36 36 37 35 34 33 35 36 34 31 30 29 28 27 28 27 27 27 24 23 24 25 26 27 26 25 22 14 4 0 8 24 21 18 19 15 16 18 21 18 15 16 15 12 10 6 5 3 4 6 6 6 7 5 1 2 2 5 5 5 4 4 3 5 3 7 5 5 6 4 4 3 2 3 4 2 4 6 8 16 16 16 15 13 13
43 41 39 37 37 37 36 35 34 35 36 34 32 30 29 27 27 28 27 27 26 23 22 22 25 27 27 25 21 16 11 5 1 5 16 18 19 19 16 18 22 24 19 16 16 12 8 8 8 5 5 5 6 7 8 8 7 4 2 4 3 5 6 4 4 1 3 4 4 3 4 5 5 4 1 1 5 7 4 5 7 10 18 18 14 12 12 14
44 42 40 38 39 38 37 36 35 35 36 34 31 30 29 27 27 28 27 26 25 24 22 21 26 28 28 25 16 7 7 6 5 7 11 13 16 16 18 21 25 23 19 19 18 12 8 9 8 5 6 6 5 8 8 7 7 6 3 6 3 5 6 5 5 3 3 4 3 3 3 3 3 2 1 2 7 8 6 6 7 8 13 14 11 10 11 12
45 43 41 40 40 39 37 36 35 35 36 34 31 30 29 28 28 28 26 25 25 25 23 24 26 28 29 22 11 5 8 13 12 9 8 5 7 15 20 22 24 22 20 21 21 15 9 8 8 7 6 6 6 7 6 5 6 5 5 7 5 6 5 5 5 4 4 2 2 3 4 4 3 1 2 3 7 8 6 7 6 6 7 8 9 10 10 10
46 44 42 41 41 40 37 36 35 35 35 34 32 30 28 28 28 28 26 25 25 25 26 26 25 28 26 16 9 5 10 20 20 14 10 5 6 15 20 22 24 23 20 20 20 17 9 7 8 6 3 4 6 6 7 5 3 5 7 7 7 7 4 4 5 4 4 3 1 3 5 4 1 1 1 2 6 7 7 6 5 6 6 6 7 8 10 11
47 45 43 42 41 39 38 36 34 34 34 34 32 31 29 28 28 28 26 25 25 26 27 27 29 29 19 10 10 6 8 18 21 19 16 9 8 17 21 21 22 23 20 17 18 17 14 12 9 3 1 3 6 4 7 4 2 9 9 8 6 6 5 3 5 5 3 3 2 2 4 5 2 1 3 5 6 6 7 7 6 6 6 7 7 7 9 10
48 45 44 42 41 39 38 36 34 35 34 34 33 31 29 27 28 27 26 25 24 25 24 27 32 26 12 6 6 6 10 13 17 21 18 11 10 18 21 17 20 23 18 14 15 18 17 12 8 5 3 1 3 3 4 4 3 8 8 7 4 5 4 3 5 5 2 2 2 1 2 3 5 4 4 7 6 6 7 7 7 6 6 7 7 7 6 9
47 45 45 43 42 39 38 37 36 35 35 35 33 30 29 28 27 26 26 25 24 26 24 27 31 19 6 5 2 5 11 12 15 20 17 13 12 17 20 15 17 21 15 10 11 17 15 5 4 5 4 3 2 1 2 2 5 5 6 6 5 4 3 4 5 4 2 1 1 2 0 5 7 6 6 7 6 6 6 6 7 6 6 6 6 7 6 8
48 46 45 43 42 40 38 37 36 36 35 34 32 30 30 28 27 25 25 25 24 25 24 29 28 11 2 3 4 8 13 14 16 19 17 15 14 14 18 16 15 18 12 7 5 12 13 4 1 2 3 1 1 2 2 2 3 5 5 4 4 3 3 4 4 5 4 0 2 3 2 4 4 6 5 5 6 7 7 7 7 6 6 6 6 7 6 8
48 47 46 43 42 41 38 37 38 38 35 34 33 32 30 27 26 25 22 23 23 22 22 28 23 7 1 2 4 11 14 14 17 23 21 16 16 12 14 17 15 16 11 5 2 8 10 6 2 2 1 2 1 1 2 2 2 4 5 4 4 4 3 2 1 5 3 1 4 3 2 2 4 5 4 4 4 5 7 7 8 7 7 7 6 6 6 7
48 47 45 43 43 40 39 39 38 37 35 35 33 31 30 26 25 23 21 22 22 22 21 22 17 7 1 2 7 13 12 10 15 22 21 17 16 11 12 14 10 12 11 6 3 4 9 8 2 1 1 2 3 3 3 3 2 4 4 4 5 5 4 2 1 2 1 2 4 4 3 1 3 4 4 4 4 5 6 6 7 8 8 8 6 6 6 6
48 47 45 44 43 41 42 40 38 38 36 36 34 32 29 25 24 22 20 21 21 22 17 13 13 7 2 5 8 9 8 9 15 20 20 18 15 12 13 10 6 10 8 5 5 4 7 6 1 1 2 2 4 4 4 5 4 4 3 3 5 6 5 4 1 2 3 2 4 5 4 2 4 6 5 5 6 6 6 6 7 7 7 7 7 7 7 7
49 47 46 45 44 43 43 41 41 39 38 38 34 31 28 25 25 22 21 22 21 17 7 4 12 6 2 7 7 8 12 14 17 20 21 18 14 15 15 8 6 9 6 3 4 5 5 4 2 3 3 4 5 6 5 5 5 4 4 3 3 6 5 4 2 2 5 2 2 6 6 6 4 7 6 7 7 7 7 7 6 6 7 7 7 7 7 7
50 47 47 46 44 45 44 44 43 41 42 39 35 33 29 24 21 18 19 20 17 10 3 7 13 3 3 11 6 9 17 19 16 15 19 18 14 15 13 9 8 8 6 3 4 6 5 3 3 5 5 7 7 7 6 5 7 8 7 5 4 5 2 3 3 1 3 2 3 6 6 7 6 6 8 8 8 8 7 6 5 5 6 6 7 6 7 8
50 49 49 47 46 47 47 47 45 45 44 41 42 34 22 19 12 8 12 12 10 6 3 12 13 3 4 10 9 15 17 16 11 8 17 18 14 12 8 7 7 5 5 5 5 6 5 4 5 6 7 8 8 9 7 6 7 9 9 6 5 6 2 2 2 1 1 3 6 7 6 7 7 7 7 9 9 7 7 7 6 6 5 5 6 7 7 7
51 51 50 48 48 48 48 47 46 47 43 46 48 24 12 17 8 9 15 7 12 9 3 16 15 3 5 10 16 20 14 8 7 6 14 17 13 10 6 7 7 5 6 7 6 5 5 5 6 8 8 8 10 11 6 3 5 8 9 7 6 5 3 2 2 1 1 1 4 7 7 8 6 7 5 8 9 8 8 8 7 7 7 7 7 8 7 5
52 50 50 49 47 47 48 47 46 46 42 46 38 11 11 14 1 14 21 5 9 11 5 21 16 0 7 10 13 15 10 6 7 7 11 14 10 7 6 7 8 6 7 8 6 5 6 6 7 9 9 7 10 10 4 1 5 5 7 6 6 4 5 4 2 2 1 1 1 1 3 6 6 6 7 6 8 8 8 7 6 6 7 6 6 6 7 7
52 51 51 49 48 48 47 47 47 45 43 42 27 10 15 14 10 30 23 5 5 4 6 20 12 4 7 5 3 5 9 8 6 7 11 13 8 4 7 8 8 8 8 9 7 5 5 5 6 9 9 9 10 8 4 2 4 2 4 5 5 5 5 1 2 2 0 1 1 3 2 5 5 6 7 6 4 4 5 4 4 4 3 3 4 4 4 6
52 52 50 49 51 48 46 50 44 37 39 37 26 13 15 19 26 32 14 5 7 2 2 10 5 5 6 4 3 3 6 6 4 8 14 13 8 4 7 8 9 8 8 11 9 6 5 1 2 4 9 8 7 7 5 4 3 1 1 3 5 6 4 3 5 5 1 0 1 2 4 5 6 8 8 3 2 3 5 4 2 1 1 2 2 1 2 3
54 53 52 51 51 48 50 47 33 29 33 26 24 19 12 19 22 16 7 5 5 2 1 4 1 3 6 5 4 2 5 4 2 6 13 12 7 5 5 6 6 7 9 12 10 6 4 1 3 2 7 6 5 6 6 5 3 0 1 1 5 7 7 8 8 5 3 2 3 2 1 5 6 9 8 3 2 3 4 4 4 3 2 3 2 3 4 4
55 52 54 52 50 54 46 28 23 31 28 17 25 24 13 16 16 9 5 3 3 2 4 5 3 6 9 5 4 4 6 2 3 3 10 8 4 4 6 4 1 5 9 8 5 3 2 1 1 3 7 7 6 5 6 6 4 3 2 2 6 10 9 10 9 5 3 3 2 2 3 4 4 4 6 6 5 5 4 4 6 6 5 5 5 4 5 5
55 53 56 52 54 56 32 15 27 32 18 18 28 22 16 17 13 5 3 1 3 5 4 3 1 6 9 5 6 6 5 5 2 3 5 4 3 1 5 6 2 2 3 4 3 1 2 1 1 3 4 5 6 4 5 7 4 2 3 3 7 11 8 9 8 4 2 2 2 2 2 1 5 4 3 8 8 6 5 6 6 6 6 5 5 5 5 5
53 55 55 53 58 48 22 21 34 24 12 23 29 19 17 18 9 2 3 3 4 4 5 2 1 6 6 2 5 3 3 8 7 3 2 1 2 0 2 8 7 1 3 3 5 2 2 3 2 4 5 4 4 1 3 4 3 2 5 2 5 9 7 7 6 3 1 3 1 3 1 1 5 5 1 5 6 6 7 8 7 7 6 6 6 5 5 5
53 56 52 54 55 33 18 27 32 21 16 22 24 20 18 14 6 2 2 4 3 3 4 4 4 6 6 4 4 1 3 5 3 4 3 1 3 1 2 6 7 6 5 4 5 1 2 2 1 2 4 3 2 2 4 0 3 3 5 1 6 6 5 4 5 4 3 2 2 5 3 1 4 4 3 3 3 7 7 7 7 7 6 6 6 6 6 5
53 55 51 55 47 23 20 27 26 24 20 19 24 22 16 9 4 4 4 4 4 3 3 3 4 7 11 10 5 4 6 2 2 7 5 2 2 2 1 2 5 6 5 7 5 1 1 1 1 1 1 2 4 2 3 1 5 5 3 5 7 6 5 4 3 5 4 1 3 3 0 2 3 5 4 4 3 5 6 6 6 6 6 6 6 6 6 6
53 52 53 53 38 22 21 20 25 28 21 22 27 20 12 5 3 5 6 4 5 4 4 5 7 10 15 13 7 7 6 3 6 11 8 4 3 2 3 3 4 4 3 4 4 2 2 2 0 1 2 2 4 4 5 3 4 5 4 5 5 4 5 5 3 3 2 3 3 3 4 1 3 5 2 3 3 1 4 8 8 7 7 6 5 5 6 6
52 51 53 48 30 21 19 18 30 31 22 27 26 13 7 5 4 5 5 6 5 5 6 9 13 13 15 14 8 8 7 5 8 12 11 8 5 5 6 5 5 4 4 4 2 2 3 2 1 1 2 3 3 4 4 5 2 2 5 6 5 2 1 1 1 1 2 3 3 2 3 1 4 6 5 5 3 2 3 7 9 8 8 6 6 6 5 5
51 51 51 41 23 16 16 22 33 30 25 28 18 6 6 7 8 7 6 6 6 9 10 11 14 15 15 12 8 8 8 6 9 11 9 9 7 6 6 6 8 6 4 4 4 3 2 1 1 2 1 2 2 3 4 1 2 3 6 5 5 4 2 2 3 2 2 3 3 4 2 2 3 5 6 3 4 4 5 7 8 8 8 7 7 6 5 6
50 51 45 30 16 12 16 25 32 30 28 22 9 6 9 8 9 8 7 5 5 11 12 12 15 16 14 10 9 9 6 5 10 11 9 8 7 8 7 7 10 7 4 5 4 4 3 1 2 2 1 1 1 1 3 5 3 3 4 4 5 4 4 4 4 3 3 1 2 3 1 3 3 2 1 2 5 6 7 7 7 7 7 6 6 6 6 6
50 47 35 20 12 12 17 24 31 31 25 13 6 8 10 9 8 8 7 5 6 10 13 15 16 15 11 7 10 10 2 3 9 8 9 9 7 8 7 7 10 7 6 7 4 5 6 2 1 1 2 1 1 2 1 4 3 3 2 3 2 3 4 3 2 4 5 2 0 2 2 4 3 1 2 4 6 6 6 6 7 7 6 6 6 6 6 6
47 37 23 15 11 11 16 24 32 30 17 8 8 8 9 7 6 7 7 7 9 12 16 16 12 12 9 5 9 9 1 2 8 6 7 8 7 10 8 7 9 8 6 7 3 3 6 1 3 2 1 2 1 2 2 2 3 1 2 3 4 3 6 5 1 0 3 2 2 3 2 4 1 0 2 4 5 4 4 4 6 6 6 6 6 5 6 6
38 27 15 12 12 10 16 25 30 23 9 6 10 9 7 4 2 5 8 9 12 14 15 13 9 11 10 7 10 10 4 5 8 6 7 8 7 10 11 8 10 10 6 4 2 2 5 3 3 2 2 1 1 1 1 1 2 3 3 5 3 2 3 3 1 2 2 1 2 3 4 4 1 2 2 4 5 4 6 6 6 6 6 6 6 6 6 6
28 19 9 10 13 10 17 25 23 13 4 6 11 7 5 2 2 4 9 11 13 14 13 10 8 9 9 9 9 11 11 9 8 7 7 7 5 10 13 8 9 12 5 3 2 2 5 4 2 3 1 2 1 2 2 0 2 3 2 2 2 1 1 1 3 1 2 3 2 3 5 4 4 4 4 6 8 8 7 7 7 8 7 6 6 6 6 6
22 12 5 10 13 10 19 24 15 7 4 8 10 6 4 2 1 2 10 14 13 12 11 9 8 8 8 9 10 11 11 9 9 7 6 6 3 7 13 7 7 13 6 4 4 2 4 4 1 3 2 1 1 1 4 2 0 1 0 1 2 2 2 3 3 3 3 3 3 2 1 3 6 6 8 11 11 10 10 8 8 9 8 7 7 7 6 6
12 5 4 12 14 14 22 18 7 6 7 9 8 4 3 3 1 1 5 10 10 6 7 9 8 8 9 10 10 10 8 7 10 7 4 6 3 3 8 6 8 11 5 5 4 2 3 3 3 1 3 0 1 1 4 5 4 2 2 2 2 1 2 1 2 2 4 3 3 2 2 5 6 3 7 12 12 11 12 10 9 8 8 7 7 7 7 6
4 3 4 11 18 21 22 11 5 8 7 7 7 3 3 4 3 2 2 3 5 1 2 8 9 7 8 10 10 10 7 6 10 6 3 7 5 2 4 6 9 10 5 5 4 2 1 3 5 3 0 2 1 2 1 2 4 4 3 5 5 3 4 2 2 1 2 2 3 3 3 6 4 2 1 4 7 9 12 11 9 8 9 8 8 8 7 7
2 4 4 13 24 24 16 7 6 7 4 5 5 3 4 5 4 4 1 2 4 2 1 5 8 7 7 7 8 9 7 6 9 8 4 6 8 3 3 7 12 11 7 4 3 2 2 4 5 3 2 2 0 1 1 1 2 2 1 3 4 4 4 4 3 3 1 1 1 2 2 6 4 2 5 3 2 4 10 11 9 9 9 8 8 8 7 7
2 4 5 14 25 18 8 8 8 5 3 5 5 4 4 4 4 5 2 1 3 2 2 3 6 7 5 4 7 9 7 4 6 7 4 4 6 1 2 7 12 11 7 5 3 2 2 4 4 3 1 2 2 0 1 1 0 1 3 4 3 4 5 4 3 2 2 2 2 2 4 7 4 3 4 4 6 3 7 11 10 8 7 8 9 8 8 7
3 4 5 11 19 9 4 8 10 9 7 6 6 4 1 2 4 5 4 3 2 3 4 3 4 6 3 4 8 11 10 4 3 5 3 4 4 3 3 7 13 10 6 5 6 4 2 3 4 4 3 1 2 1 1 2 2 2 3 4 3 3 5 3 1 1 1 4 6 5 4 6 4 4 5 4 5 4 4 9 9 9 8 8 8 8 8 8
4 3 4 5 8 4 2 3 6 10 9 8 8 7 3 3 2 1 4 4 2 2 4 2 3 5 4 6 7 8 9 4 2 4 3 2 2 4 4 4 10 8 2 3 6 6 4 4 5 5 5 4 4 4 4 3 2 1 1 4 6 5 7 5 2 2 3 5 6 6 5 6 4 4 4 2 1 1 3 6 8 8 8 9 9 8 8 8
3 3 3 4 2 3 3 3 2 8 9 9 9 7 7 5 1 3 3 3 2 3 4 2 3 6 5 7 8 7 7 2 2 5 5 3 2 2 4 1 3 4 3 6 8 6 3 3 5 8 8 9 8 7 6 6 5 5 6 8 9 9 9 6 4 5 6 5 4 6 7 6 5 3 3 4 4 5 5 6 7 7 8 9 9 8 8 8
2 2 5 5 3 4 4 4 4 7 9 10 8 7 9 8 5 2 4 2 1 2 4 2 3 6 8 10 7 8 9 3 3 6 7 4 2 2 2 4 4 3 3 7 8 5 4 3 6 9 10 9 8 6 8 10 9 12 14 13 12 10 9 7 5 9 7 4 5 8 8 8 8 6 7 8 6 6 6 8 8 8 9 8 8 8 8 8
2 2 1 1 2 6 6 5 7 8 11 11 6 7 10 9 8 5 1 2 1 2 2 1 3 8 12 13 8 7 8 4 3 5 6 5 3 4 3 4 3 2 2 4 5 3 4 4 6 7 8 7 3 4 9 12 10 11 12 14 14 11 11 11 12 13 8 6 10 12 11 12 10 7 8 9 9 9 10 10 7 7 8 8 9 9 9 9
2 2 0 3 1 4 5 3 3 6 12 12 6 8 12 12 10 7 3 3 2 1 1 3 6 8 10 12 8 7 9 8 5 5 5 5 5 5 3 1 1 3 3 5 4 2 3 4 4 6 7 7 2 3 5 8 8 8 10 11 12 12 14 15 15 17 13 11 13 13 10 11 9 7 8 9 9 9 8 7 6 7 10 10 11 11 10 11
1 2 1 1 1 3 6 4 2 4 8 10 7 7 11 13 12 7 4 4 5 4 3 5 9 9 9 10 8 7 11 12 9 8 7 7 5 4 4 3 3 2 3 3 2 2 0 3 2 5 4 5 2 3 2 3 3 5 6 8 11 12 13 14 14 15 12 11 13 12 9 11 8 6 5 5 7 7 6 8 8 8 10 11 12 12 12 12
1 1 0 3 2 1 5 6 4 4 7 8 7 7 10 13 13 9 4 1 3 5 6 8 10 7 6 8 8 7 8 8 9 11 12 11 8 6 4 4 7 6 2 1 2 2 2 1 1 3 4 4 1 2 3 6 6 2 2 6 11 12 12 13 13 12 10 10 12 11 9 12 9 5 3 3 7 9 9 10 9 8 10 12 13 14 13 13
1 1 2 2 2 2 2 6 5 5 5 6 7 8 8 10 12 10 5 2 3 2 4 9 11 7 5 7 6 4 5 6 7 9 8 7 6 5 4 6 11 11 7 4 3 3 5 4 1 2 5 3 4 1 5 6 4 3 6 9 13 13 12 11 9 11 12 11 10 9 11 13 8 5 5 5 7 9 10 9 9 9 10 12 13 14 14 14
Wind_Direction
208 205 203 204 205 205 204 205 206 201 199 203 202 201 200 198 195 195 194 194 198 198 196 197 198 200 201 201 199 200 205 205 203 204 208 222 221 212 193 196 231 255 309 306 276 275 277 255 239 206 168 167 175 239 169 175 260 97 174 212 227 228 203 190 138 112 124 132 141 153 173 140 134 154 126 171 104 114 134 107 91 77 72 92 109 125 133 141
206 203 202 202 204 205 203 202 202 200 197 198 200 199 198 196 194 193 191 193 196 197 196 195 197 197 198 200 200 202 203 203 212 225 224 225 226 220 214 225 246 253 286 296 265 256 256 243 230 204 172 174 169 186 176 172 167 154 204 226 238 233 61 74 83 65 105 138 143 155 188 151 141 155 142 165 143 139 141 132 125 103 93 105 117 129 136 144
205 203 201 201 203 204 201 200 200 199 195 193 195 197 195 193 191 190 189 191 193 195 195 194 196 193 196 198 199 204 198 200 245 246 231 228 229 224 218 224 241 254 268 274 258 254 258 249 226 222 205 201 190 182 221 187 156 200 210 236 239 138 62 45 71 52 60 127 137 144 161 100 136 142 143 185 153 163 173 156 158 141 139 140 136 138 144 152
204 202 198 198 203 202 199 199 198 197 194 190 190 193 193 191 191 190 187 188 190 193 194 193 192 190 195 196 199 196 172 224 257 229 229 228 227 223 213 215 233 251 259 267 263 263 265 252 215 212 231 220 207 190 209 185 155 201 199 248 258 127 80 40 60 48 31 100 128 130 130 110 130 124 163 202 148 177 206 159 173 169 154 151 149 148 154 160
202 200 197 199 202 200 197 196 197 196 192 187 187 189 191 191 192 191 187 187 188 190 191 191 188 186 192 193 196 181 141 243 230 208 227 227 219 211 200 206 229 252 257 265 267 266 261 250 209 184 234 245 219 194 200 203 186 196 165 12 341 57 92 70 59 42 3 43 114 126 148 128 107 118 197 236 130 156 296 88 121 150 151 153 152 152 159 164
199 198 196 199 200 198 195 194 196 195 189 185 186 188 189 190 190 190 189 187 188 187 187 191 185 182 189 189 187 172 156 221 188 196 217 217 206 196 189 206 235 253 254 257 262 260 250 244 221 185 196 244 237 208 200 202 188 217 165 73 360 33 97 98 66 26 345 71 122 131 137 122 139 164 200 271 92 112 69 37 32 97 138 147 148 152 163 168
198 196 195 197 197 196 193 193 195 193 188 184 184 186 187 188 187 189 189 187 188 185 182 188 185 185 186 175 171 173 184 224 13 166 190 197 197 191 201 224 245 250 243 243 248 245 230 229 223 191 187 233 243 216 208 191 181 227 179 112 44 58 90 91 92 78 3 62 103 106 122 138 175 167 84 64 120 117 93 67 52 93 131 141 147 160 170 171
197 194 194 196 196 194 192 192 192 189 185 181 183 184 185 187 186 188 188 187 187 183 182 183 182 185 180 163 155 179 207 196 171 134 143 175 191 201 220 236 247 239 225 229 235 230 213 221 220 187 193 226 230 211 202 173 185 233 170 128 115 90 92 99 111 119 65 59 69 111 139 109 127 125 73 184 137 125 111 93 74 91 128 143 153 168 173 172
195 192 194 195 195 192 190 190 189 187 182 178 179 181 183 185 185 186 186 187 187 183 182 180 178 181 176 166 159 188 207 199 191 155 135 159 198 218 225 231 231 215 212 224 230 229 211 215 218 197 209 233 236 213 194 178 198 216 152 130 124 106 112 126 125 129 111 95 104 147 138 72 71 150 223 178 129 125 122 111 110 111 131 151 158 169 175 173
192 191 193 193 192 190 188 187 186 184 180 177 177 180 182 183 184 183 184 187 184 179 178 176 172 170 168 168 167 191 209 206 209 198 195 235 228 213 213 216 210 198 208 220 224 227 211 214 218 207 229 275 268 209 179 205 183 133 124 111 116 116 130 147 126 133 123 107 168 190 141 111 123 184 213 146 128 133 129 128 146 146 154 166 162 168 173 175
189 189 191 190 189 189 187 185 184 181 178 176 175 178 179 182 182 180 183 184 178 176 177 178 171 163 162 169 171 189 195 196 210 207 204 220 210 199 195 197 196 194 207 217 222 220 211 221 222 212 218 299 283 187 155 231 125 118 117 93 107 118 118 143 127 145 142 104 231 264 122 120 108 167 195 155 145 157 148 148 166 168 171 173 167 163 169 176
188 187 188 188 186 185 184 184 182 179 177 175 174 175 177 179 177 176 180 177 172 172 176 179 171 162 166 194 194 192 182 188 200 198 198 207 204 197 187 184 191 196 207 218 222 217 216 224 214 213 214 271 289 150 153 236 142 131 128 101 123 125 122 163 133 156 195 120 223 308 94 179 196 197 169 143 150 170 166 159 165 178 181 174 166 157 164 175
185 185 185 184 183 182 182 181 179 177 174 171 171 171 172 173 173 175 175 170 165 167 170 172 167 164 186 203 197 176 174 183 188 182 184 195 201 196 188 185 189 197 215 238 228 215 222 234 188 216 255 288 295 240 230 192 144 161 146 115 138 138 161 177 125 148 164 95 213 114 85 246 201 171 135 139 153 156 168 167 164 179 181 172 162 153 165 177
181 181 180 179 181 180 179 178 176 174 169 166 165 164 165 166 168 170 169 165 163 164 166 170 171 176 220 154 140 170 170 170 177 178 178 185 191 194 195 195 191 195 214 271 248 203 213 240 185 259 297 276 301 316 306 124 150 179 156 130 144 147 176 164 135 166 149 41 228 144 250 269 142 135 131 152 163 158 179 182 171 174 171 173 163 159 170 180
179 178 178 178 179 178 176 175 172 169 164 160 157 158 161 160 163 163 162 161 160 163 161 168 180 195 166 138 143 162 160 157 173 186 192 189 181 190 201 199 198 200 212 262 235 174 188 200 186 250 262 129 127 245 155 134 198 189 165 163 166 151 152 154 184 182 152 208 217 179 227 250 111 136 144 160 184 185 200 191 172 169 168 172 169 171 177 180
176 175 176 176 176 174 172 170 166 162 157 154 153 154 155 155 157 154 151 155 158 164 156 161 191 229 243 159 146 152 154 161 176 184 191 187 179 189 191 186 190 200 215 236 220 172 178 181 167 232 237 141 189 208 155 144 218 203 169 163 177 165 152 183 281 231 175 141 197 222 240 170 126 163 160 172 197 202 222 203 173 170 170 170 168 176 181 178
172 172 173 172 173 170 168 165 160 156 151 149 147 145 146 149 150 144 145 151 150 155 149 152 193 234 318 131 141 164 168 163 169 171 174 178 185 188 172 162 166 182 197 214 210 204 186 179 138 149 221 209 209 207 168 172 203 193 168 175 187 170 150 163 228 258 220 186 192 217 250 232 154 159 173 193 187 189 221 215 190 182 173 170 168 172 180 181
171 170 171 170 169 165 163 160 155 151 148 144 142 140 140 142 145 141 140 139 132 137 139 156 184 214 242 171 162 171 165 155 163 166 166 172 183 181 169 155 155 163 159 171 190 199 192 171 150 169 197 211 213 211 189 176 176 161 171 178 169 173 162 156 162 186 188 217 211 187 227 252 188 161 180 197 185 185 207 208 202 190 176 173 171 172 178 182
170 170 169 168 165 161 159 157 154 149 145 140 134 132 131 133 138 133 134 141 137 144 184 181 182 210 169 176 163 139 151 151 154 162 163 165 173 178 180 165 153 157 155 169 194 199 189 137 163 194 198 201 211 218 206 181 170 161 177 184 162 175 167 127 133 157 156 174 225 194 215 245 225 191 182 188 190 188 198 203 204 197 184 180 174 177 181 185
168 168 168 166 162 159 157 156 153 149 148 139 133 132 132 140 140 131 148 170 188 189 158 170 190 295 94 147 129 120 134 139 135 160 168 162 162 175 194 175 155 169 174 170 183 189 175 157 187 201 203 200 209 227 222 211 192 167 176 199 180 164 145 101 122 307 39 146 219 222 228 241 239 230 194 175 184 194 199 200 203 198 196 200 189 184 183 182
166 167 166 164 160 158 157 156 152 152 152 146 143 144 155 158 157 164 166 197 232 234 141 163 191 285 84 129 133 130 127 121 114 155 169 158 156 168 185 174 162 185 192 174 162 161 172 196 200 198 211 199 204 227 225 240 236 178 173 194 190 170 144 73 93 204 20 89 221 219 228 244 239 250 235 168 172 197 203 200 205 203 198 206 199 187 174 148
166 165 163 161 159 157 156 155 153 154 153 151 155 166 173 178 245 151 154 146 224 237 164 166 186 190 103 131 144 141 129 120 122 150 171 160 161 174 176 178 172 177 193 182 159 158 188 212 195 192 216 211 207 219 191 252 262 192 165 179 188 172 120 71 59 125 110 101 241 171 236 258 244 240 244 202 192 198 191 183 183 186 187 188 179 167 149 128
165 163 161 159 158 157 156 156 154 155 154 158 173 191 167 177 129 136 143 100 158 224 161 167 178 117 118 134 168 156 137 140 139 161 178 166 162 192 182 181 180 178 192 189 171 171 188 204 199 192 209 215 206 201 164 206 265 206 147 156 170 163 135 125 187 152 163 161 72 11 305 266 256 245 238 224 205 161 142 118 101 118 148 137 114 115 127 137
163 162 161 158 159 158 158 157 154 156 161 167 188 194 151 151 142 141 140 84 122 41 119 163 161 122 134 126 159 183 142 132 130 161 179 172 155 180 192 183 180 184 200 193 179 177 179 198 288 205 196 201 185 181 179 179 220 284 116 141 154 157 127 100 145 143 64 28 144 343 321 280 226 217 228 225 66 107 116 95 85 84 111 87 71 122 159 139
162 161 160 159 161 159 156 156 155 159 164 176 201 203 162 152 159 157 133 107 127 34 74 167 158 139 139 119 132 140 113 94 39 154 174 181 159 147 187 192 185 191 200 196 181 174 191 262 330 186 180 182 163 178 192 173 176 168 355 182 147 141 110 106 132 127 92 260 244 136 7 290 232 200 203 171 125 158 137 146 184 188 171 169 200 189 161 137
162 161 160 161 161 157 154 156 161 159 160 192 206 202 197 174 175 176 131 99 144 144 160 168 169 164 153 135 129 119 126 137 341 130 161 192 195 155 181 187 172 196 191 189 186 164 161 326 320 183 175 173 171 195 196 176 170 167 242 304 119 124 116 129 150 140 127 214 269 109 159 264 292 218 181 156 163 169 154 191 188 165 169 181 179 158 137 133
161 161 160 161 161 158 155 154 160 157 162 203 200 198 211 195 184 179 113 84 185 159 148 162 210 166 157 156 161 152 155 149 94 123 163 203 230 161 183 179 148 244 199 159 190 253 106 106 264 177 155 158 169 199 207 184 171 187 270 323 111 123 129 146 155 155 151 143 28 4 155 196 302 285 164 145 155 164 180 208 191 161 164 160 147 139 128 125
161 161 160 162 162 160 155 149 157 163 179 189 189 193 200 188 175 129 109 148 176 141 135 142 117 143 136 133 157 151 148 137 129 165 180 215 226 64 176 184 164 102 1 142 180 278 61 143 174 144 137 157 168 240 263 182 146 238 271 286 126 129 139 147 141 137 109 81 18 270 166 135 269 269 143 131 156 191 202 196 185 167 158 148 138 136 130 122
160 161 161 161 160 160 159 156 160 170 176 176 181 184 179 168 146 91 146 173 149 117 136 135 128 136 133 137 136 104 140 137 131 151 139 203 233 252 190 183 147 104 40 73 142 329 357 176 218 126 141 156 134 2 317 42 115 210 235 61 80 96 111 126 127 110 76 68 228 228 176 150 265 251 184 159 198 216 204 181 170 158 149 142 134 135 135 126
160 161 160 159 161 163 158 159 166 170 167 169 173 169 155 146 146 150 186 191 138 125 138 136 155 154 152 153 149 163 155 104 81 128 141 185 204 271 249 142 111 100 53 51 81 82 260 206 271 55 123 165 129 88 332 31 120 146 148 81 63 53 46 51 77 86 79 262 247 259 31 101 266 261 190 184 237 217 179 155 149 144 143 142 139 144 139 132
159 160 160 160 164 165 150 157 177 176 170 164 162 156 145 145 196 174 175 163 126 131 144 139 151 157 162 161 158 169 152 103 135 144 157 176 163 193 174 130 105 91 73 65 67 75 65 41 18 46 317 236 135 86 4 18 112 115 120 112 81 34 27 31 13 57 106 236 254 308 345 51 229 258 214 203 263 305 149 157 159 155 154 152 147 138 125 127
160 159 160 162 164 164 159 168 179 179 172 159 154 152 152 153 198 199 154 145 149 170 172 159 156 163 170 163 154 164 145 126 159 156 158 167 168 181 175 166 157 137 153 157 116 94 70 60 117 53 303 249 141 97 33 357 352 114 139 126 103 78 55 76 266 181 188 244 265 297 326 292 233 244 248 226 209 37 87 145 155 154 152 153 144 122 106 111
159 157 159 165 169 167 170 174 176 177 167 158 154 162 160 159 189 194 156 160 171 162 163 163 158 159 165 160 153 157 140 142 169 161 159 165 164 186 199 183 173 174 171 148 129 122 73 41 161 83 325 237 160 129 133 210 276 174 155 137 130 137 136 174 191 188 214 258 283 290 292 269 263 262 268 243 149 89 69 111 132 138 142 145 138 123 105 97
157 157 159 166 172 163 165 173 176 171 161 161 168 163 161 174 189 180 164 174 162 151 155 153 149 154 165 163 154 156 139 148 168 159 158 167 169 187 201 188 187 187 145 132 157 162 140 194 194 138 177 173 147 163 151 154 175 192 169 142 148 156 157 175 173 171 187 223 314 303 264 194 211 240 258 66 86 74 62 83 98 104 117 121 119 119 113 100
155 158 160 161 161 152 157 170 174 168 162 166 167 159 175 185 181 177 171 161 148 148 147 145 147 156 167 159 154 164 146 158 176 168 163 174 180 184 188 188 191 187 148 153 179 166 156 180 294 247 255 121 122 302 359 124 164 226 139 110 175 188 144 136 159 169 153 109 294 234 239 219 196 154 131 97 78 77 79 87 94 97 108 114 118 124 120 110
155 160 160 157 158 152 155 166 170 171 173 169 158 175 195 184 171 176 162 145 152 150 143 146 155 160 161 152 159 171 345 145 174 176 169 178 183 182 187 185 186 192 172 155 151 151 152 137 331 295 315 32 111 298 352 122 183 209 118 157 210 162 112 115 175 18 112 133 217 188 260 281 271 64 164 125 100 104 128 130 124 130 135 133 133 129 119 112
157 161 158 161 170 165 159 164 169 176 190 179 172 185 186 172 193 172 145 136 147 148 145 151 169 171 163 159 168 171 145 140 174 178 169 181 187 185 189 186 181 191 186 141 146 193 146 102 335 350 42 347 204 154 36 101 135 109 147 194 191 74 71 114 135 24 81 203 232 170 209 248 209 232 233 157 156 181 185 173 155 151 156 155 143 128 118 113
156 154 147 164 176 177 164 163 170 181 200 185 185 188 161 156 250 160 140 136 143 152 156 157 172 179 169 162 166 168 157 157 182 181 165 179 192 182 183 185 183 186 176 107 141 168 118 103 337 347 20 266 264 121 145 67 91 121 180 201 113 100 276 168 163 163 156 198 257 233 218 223 206 202 199 198 202 198 191 185 171 166 173 166 144 132 123 117
153 147 139 166 177 182 165 162 170 183 188 188 190 188 142 126 313 133 136 141 147 160 167 163 165 171 170 165 157 162 168 167 170 168 168 181 198 188 180 169 176 184 172 123 152 148 105 118 223 312 315 274 347 115 182 192 97 112 49 40 75 146 176 172 189 178 149 178 232 265 252 242 238 206 183 198 204 188 182 189 183 177 179 169 149 146 141 138
156 139 126 158 165 167 160 158 169 186 191 193 181 164 132 127 5 21 123 145 151 165 174 165 163 159 161 163 155 161 173 163 162 170 177 167 160 217 191 156 161 176 145 97 132 134 90 101 137 271 326 273 195 230 189 174 174 170 139 152 173 165 127 142 251 172 134 166 207 213 255 258 254 216 186 197 197 186 182 183 183 177 174 165 152 156 156 152
163 127 131 154 155 156 155 154 187 187 190 189 169 150 141 140 128 73 21 119 132 104 189 161 160 159 157 159 159 166 164 150 167 174 162 168 167 242 217 167 155 157 118 91 121 138 104 92 124 146 182 172 193 329 19 135 162 167 170 180 178 152 125 124 267 249 124 151 183 174 243 268 261 349 343 199 187 185 180 174 176 173 169 163 155 158 160 152
134 125 135 155 157 160 159 163 189 185 187 177 154 112 131 137 131 138 38 59 108 61 4 151 154 154 154 156 156 164 156 145 175 176 159 181 178 179 203 157 148 151 140 122 131 139 105 93 106 127 164 164 154 3 33 54 148 141 216 201 165 163 163 154 201 231 181 154 135 136 256 273 266 360 13 1 310 211 178 167 169 170 165 160 153 153 150 141
98 108 104 151 163 171 174 168 175 182 188 158 108 81 128 136 133 152 165 114 111 109 103 125 150 155 155 144 143 156 151 139 183 176 140 154 165 224 261 153 146 153 151 138 150 149 100 99 107 92 55 9 355 28 30 355 98 175 246 214 173 183 186 164 172 174 153 170 142 141 254 267 282 356 10 338 328 305 172 163 161 163 161 156 153 151 143 135
111 100 68 149 169 187 196 173 177 180 177 149 115 111 100 76 120 155 164 143 126 144 133 114 148 154 139 132 147 162 162 153 197 182 127 140 156 331 307 161 153 156 160 168 174 170 149 133 124 110 98 29 354 333 312 293 221 220 232 192 152 109 111 116 135 82 138 208 172 162 237 257 281 343 354 340 351 22 147 160 158 159 161 157 153 150 144 141
122 99 47 140 177 214 238 197 187 176 166 146 139 144 121 66 54 132 134 118 57 108 124 106 132 123 110 126 137 161 165 142 165 166 113 109 153 337 323 181 165 163 159 152 151 148 157 161 141 138 160 179 193 207 209 201 188 219 243 177 172 156 143 152 173 153 221 224 176 174 230 259 299 335 340 329 21 102 159 162 157 159 160 159 159 158 155 154
128 119 109 132 195 255 266 305 219 176 167 155 151 153 142 127 42 2 63 90 15 61 93 98 115 101 114 140 133 158 174 95 68 160 145 126 148 332 331 331 147 138 97 118 133 128 132 182 178 177 190 196 202 208 171 131 137 183 202 195 192 193 181 160 138 180 210 211 193 215 229 250 280 268 253 255 207 196 196 169 158 160 164 166 165 164 162 160
102 137 148 147 176 218 238 270 221 181 170 165 162 159 151 137 129 41 14 36 183 111 70 57 136 137 154 157 144 165 174 120 83 157 150 127 111 68 17 23 61 79 91 128 138 119 111 203 206 196 210 210 203 202 166 150 172 194 198 198 196 194 183 168 192 214 200 174 229 241 226 236 244 206 214 233 208 200 207 189 179 173 170 167 160 159 160 160
75 118 148 67 178 191 200 215 207 183 166 165 164 154 152 145 149 157 38 43 138 148 80 50 187 176 168 163 154 157 161 132 107 155 142 123 125 110 52 23 45 6 8 133 142 107 129 202 214 199 223 228 186 164 167 170 189 196 195 200 196 187 181 188 213 223 199 178 231 235 215 228 238 206 210 218 195 196 203 194 179 159 156 155 155 163 169 167
54 96 42 339 343 170 158 149 195 184 165 164 167 163 163 163 161 157 111 96 126 234 174 156 185 185 170 165 156 148 163 166 168 179 153 128 142 134 104 76 109 3 23 135 148 69 130 202 207 184 221 238 169 113 157 175 192 201 201 198 189 186 191 199 215 225 217 213 234 239 233 244 240 202 214 218 194 193 189 169 155 153 160 163 165 173 179 178
46 70 125 51 39 138 140 133 184 186 166 167 175 175 172 170 164 149 115 136 163 186 191 162 170 173 165 167 167 171 186 184 173 172 147 128 150 166 148 160 146 66 42 126 114 17 128 217 185 152 209 245 159 91 71 109 155 201 208 189 179 184 197 208 219 226 225 228 244 255 266 269 249 196 208 212 169 157 155 164 178 177 169 168 173 181 186 187
27 342 358 129 75 95 154 161 182 176 167 176 181 174 174 176 167 144 101 57 148 164 177 160 149 142 147 170 181 182 184 178 165 164 156 150 166 175 163 153 140 129 111 127 108 80 130 243 23 117 175 238 234 124 112 73 60 13 253 191 179 182 195 208 216 218 212 216 237 250 256 258 247 185 183 192 151 153 171 180 187 186 174 175 182 189 192 192
348 339 337 124 86 360 173 167 179 185 175 178 176 170 176 174 158 141 123 36 37 91 155 151 140 129 138 165 179 154 118 110 126 146 145 133 127 122 123 145 149 150 154 155 147 135 140 141 57 143 177 245 325 111 126 87 59 269 243 204 190 192 199 206 218 223 213 205 215 226 232 244 238 167 185 212 173 176 189 185 184 187 184 188 193 193 195 197
Height
707 711 716 719 723 725 727 730 733 734 736 740 744 748 751 754 757 759 762 765 768 770 773 775 777 780 782 784 785 788 791 792 793 794 794 794 797 800 801 802 802 803 803 803 803 804 803 802 801 799 801 802 802 802 801 800 799 804 812 819 821 816 810 805 805 805 808 813 813 811 809 813 819 816 813 813 815 818 820 821 821 822 823 825 827 829 831 834
705 709 713 717 720 723 726 728 731 733 735 738 742 747 750 753 756 758 761 764 767 770 772 774 776 779 781 783 785 788 791 792 793 792 791 793 796 798 800 801 802 802 803 803 803 804 803 802 800 799 801 803 803 802 803 800 800 807 811 816 817 810 804 798 799 802 804 810 811 810 808 810 815 815 813 817 821 820 823 825 824 827 829 828 829 831 833 834
703 707 711 715 718 721 724 727 730 732 733 736 741 746 749 752 755 758 760 763 765 768 770 773 775 777 780 782 784 788 791 793 793 788 788 792 795 796 798 800 801 802 803 803 803 803 803 801 800 800 801 804 803 803 805 802 802 805 808 816 812 804 802 798 798 801 802 805 808 810 808 809 812 811 814 818 821 821 823 824 825 829 830 829 829 831 833 835
701 705 709 712 716 719 722 725 728 731 733 735 740 744 748 751 755 757 759 761 764 767 769 772 774 776 779 781 785 787 791 797 791 783 787 791 792 794 796 799 800 802 803 803 803 803 802 800 799 800 803 806 802 802 806 803 801 803 806 813 806 799 804 803 800 801 801 802 806 810 810 813 811 810 814 815 821 824 820 818 819 822 826 828 829 830 832 834
698 702 706 710 714 718 721 724 727 730 732 734 739 744 747 750 754 757 759 761 764 766 768 771 773 776 778 780 784 786 794 800 787 780 787 789 791 793 795 798 800 802 803 803 803 802 801 799 799 801 805 807 804 803 805 799 798 802 804 805 801 798 806 806 802 803 802 801 805 810 813 813 811 811 813 813 821 825 819 816 813 814 819 823 826 829 831 833
696 700 704 708 712 716 719 723 726 729 731 733 738 743 746 750 753 756 758 760 763 765 767 770 772 775 777 780 785 786 792 794 782 779 785 786 790 792 794 798 800 802 803 804 803 801 800 798 800 804 806 807 805 803 802 796 796 804 805 802 801 800 805 806 804 805 804 803 808 811 810 810 813 815 813 813 818 820 817 815 812 811 816 821 824 828 830 832
693 697 702 706 710 714 718 721 724 727 730 732 737 741 745 749 752 755 758 760 762 764 766 769 772 774 776 781 785 787 787 785 780 779 782 785 790 791 794 797 799 801 802 803 803 800 800 799 801 802 805 808 805 801 798 795 796 804 805 803 804 802 804 806 806 807 805 806 808 808 809 811 814 816 813 814 816 816 815 814 812 813 817 821 824 826 828 830
690 695 699 704 708 712 716 720 723 726 729 731 736 741 745 748 751 755 757 760 761 764 766 768 771 772 777 780 784 788 786 782 780 781 782 785 788 790 794 796 797 800 800 802 801 799 799 800 800 799 805 807 801 798 795 795 800 802 803 803 803 804 806 807 807 808 807 808 808 808 812 813 813 815 815 815 814 814 814 814 814 815 817 821 824 826 827 829
687 692 697 702 706 710 714 718 721 725 728 730 735 740 744 747 751 754 757 759 760 763 765 767 770 772 777 779 782 787 782 778 780 781 782 784 787 790 792 793 795 797 799 800 798 798 797 798 798 796 802 802 797 797 793 799 803 799 800 802 803 806 806 807 808 808 808 808 808 811 815 815 813 814 815 812 812 813 813 815 816 816 819 820 823 824 826 827
684 689 695 699 704 708 712 716 720 724 727 729 733 738 743 747 751 753 756 758 760 763 765 767 770 774 778 778 782 785 777 775 780 780 782 784 787 789 791 792 794 795 798 798 796 796 795 796 794 791 797 797 795 795 794 799 799 794 798 801 802 806 806 806 808 808 808 809 810 813 816 816 814 815 817 813 811 812 814 817 817 817 819 820 821 822 824 826
681 686 692 697 702 707 711 715 719 723 726 728 732 737 742 747 750 753 755 758 760 762 764 767 770 774 777 777 781 780 773 774 778 778 782 785 787 788 789 791 792 794 796 795 795 793 793 793 790 792 797 797 795 793 793 795 793 793 798 803 805 806 806 806 808 810 808 810 811 811 815 817 816 817 815 812 811 812 814 817 817 818 818 818 819 821 822 824
678 683 690 695 700 706 710 715 718 722 725 728 732 736 741 747 750 753 755 758 760 762 765 767 769 773 777 778 777 773 770 773 775 778 782 784 787 788 789 791 791 793 794 794 793 791 792 791 790 795 797 796 797 797 795 791 793 795 796 806 810 807 809 808 807 809 808 812 810 810 819 821 818 816 811 809 811 811 813 816 817 817 817 817 818 819 821 822
676 681 688 693 699 704 709 713 718 721 724 727 731 735 741 747 750 753 756 759 760 763 766 768 771 773 776 777 773 770 770 772 774 778 782 784 786 788 789 790 790 792 793 792 791 790 791 790 790 793 792 795 799 797 793 790 793 798 796 805 813 813 815 809 806 809 809 813 809 812 826 821 812 813 810 809 810 811 814 815 816 817 816 816 817 818 820 821
673 679 686 692 697 702 707 712 716 720 724 727 730 735 741 747 750 753 756 759 761 764 767 770 773 773 773 772 770 770 770 772 774 776 780 783 785 787 789 789 790 790 791 791 790 789 791 791 790 792 792 795 798 795 795 795 796 799 800 805 812 820 820 809 807 810 812 815 809 814 828 820 811 813 811 810 809 811 814 814 814 815 815 815 816 818 820 820
671 676 684 690 696 701 707 711 715 719 723 726 730 736 741 747 751 754 758 760 763 766 768 771 774 773 772 770 769 770 771 773 774 775 778 781 783 786 786 788 789 789 790 790 789 789 790 791 792 795 795 793 796 800 802 802 800 799 807 814 813 818 822 813 809 809 812 814 810 816 826 819 814 814 811 810 810 811 813 812 812 813 814 815 816 817 818 819
669 675 682 688 695 700 705 710 714 718 722 726 731 736 741 748 752 756 759 761 765 769 770 773 775 773 772 770 769 771 772 773 773 774 777 779 782 784 785 787 787 788 789 789 789 789 790 791 793 795 796 796 799 803 805 810 809 801 807 818 814 815 824 820 812 809 809 812 812 816 820 818 815 813 811 810 810 811 812 811 810 811 812 813 815 816 817 817
668 674 680 687 693 698 704 709 713 716 721 726 731 736 742 748 753 758 761 763 767 770 771 774 776 775 772 769 769 770 769 770 772 773 776 779 781 783 785 786 786 787 788 789 790 790 790 791 794 795 796 798 800 801 811 821 819 808 806 812 810 811 821 823 818 812 808 812 814 815 818 815 812 811 811 810 809 811 812 810 809 809 810 810 812 814 814 815
666 672 679 687 692 697 702 707 711 715 720 726 731 736 742 750 756 759 762 764 768 773 776 776 778 777 771 766 765 764 764 767 770 772 774 778 781 783 784 784 784 786 788 790 791 791 791 792 795 799 800 801 800 802 815 820 814 812 812 812 810 808 812 818 818 813 810 814 815 817 820 815 811 811 812 810 808 810 810 809 808 807 808 809 810 811 812 813
665 671 678 686 691 696 701 705 710 713 719 725 730 736 745 753 758 760 763 763 765 770 770 768 769 764 758 756 758 759 761 765 769 772 774 777 781 783 782 783 783 785 790 794 794 791 791 795 799 804 804 803 801 799 804 803 800 806 808 809 811 810 811 815 817 813 811 816 817 816 819 814 810 810 810 809 807 807 808 806 807 807 807 808 809 810 810 811
664 671 677 684 689 694 699 704 708 711 715 720 725 735 744 751 757 762 764 761 755 751 750 753 756 751 747 750 755 758 762 765 769 772 774 775 779 782 782 782 784 787 790 794 795 789 789 800 806 805 802 798 797 794 792 790 791 797 802 806 808 810 814 816 817 815 811 816 818 813 814 812 808 805 804 806 806 807 807 806 807 807 807 807 807 808 808 809
663 670 677 683 688 692 698 702 706 709 712 715 720 727 730 732 738 744 750 756 753 744 743 749 752 751 748 750 752 755 759 766 770 771 774 774 776 782 782 782 787 792 789 789 791 788 790 803 804 798 794 791 792 791 789 789 789 792 799 806 806 807 815 817 815 815 813 816 816 811 812 811 806 804 800 802 807 807 805 805 806 805 806 806 805 806 807 808
663 670 676 682 687 691 696 701 704 709 712 716 720 720 719 719 718 720 731 748 752 744 744 749 752 752 750 751 752 751 756 765 771 772 772 773 776 782 782 781 789 792 787 786 791 794 799 802 796 790 788 787 789 788 788 790 789 790 796 803 807 808 815 820 818 816 814 816 816 812 815 812 805 802 799 799 802 802 801 801 803 803 803 804 804 804 806 808
663 668 675 680 685 691 696 700 705 708 711 714 717 716 717 719 717 718 727 741 748 744 743 748 751 752 752 753 752 752 755 762 769 772 770 772 776 779 780 782 786 787 785 786 792 802 805 798 788 785 786 786 788 788 788 792 791 791 794 800 808 808 811 819 822 820 816 817 819 817 818 814 806 803 799 796 797 796 798 799 800 802 803 804 805 805 806 808
662 667 674 678 685 691 695 701 706 708 710 713 715 713 715 719 719 720 725 735 745 745 744 747 747 749 752 752 751 753 756 758 764 769 768 770 774 777 778 779 783 786 785 783 788 797 799 793 787 783 784 785 788 790 790 795 797 794 794 798 805 807 806 811 819 821 819 820 820 819 822 815 805 804 800 797 798 797 799 800 800 802 803 804 805 806 807 808
660 666 672 678 684 689 695 702 705 707 711 715 714 711 715 717 717 718 722 735 748 748 747 747 746 748 749 750 752 752 754 759 763 765 766 768 771 775 777 775 779 786 783 780 784 792 793 792 790 785 784 785 789 793 791 795 801 800 798 795 797 804 807 812 817 819 825 827 819 818 829 819 798 798 800 798 800 799 799 801 801 803 804 805 806 806 807 808
659 665 670 677 683 688 696 700 702 706 712 714 710 710 714 715 717 716 720 739 753 751 750 747 746 748 747 750 752 752 759 765 765 764 765 768 767 770 776 776 777 781 779 777 782 789 793 794 792 786 786 787 791 795 790 791 801 806 801 793 793 801 808 814 817 817 826 829 819 818 829 823 802 794 797 798 800 800 801 802 801 803 804 805 806 805 807 808
658 664 669 675 679 684 689 693 699 705 708 709 706 711 713 712 716 714 724 753 757 745 748 748 746 746 746 749 749 753 764 765 765 766 765 768 767 766 775 778 779 778 773 776 788 794 795 796 793 786 787 791 794 796 790 787 799 806 802 796 795 801 808 812 813 816 822 824 823 820 822 828 820 802 795 797 800 802 803 803 801 802 803 803 805 806 806 808
658 663 668 673 678 683 685 687 694 698 700 702 704 710 711 712 717 713 731 763 756 736 741 746 744 744 745 749 749 754 759 757 765 771 765 767 769 767 773 775 777 780 774 778 794 798 794 794 793 788 791 795 796 798 793 788 798 806 803 798 796 800 805 807 811 816 818 821 829 825 819 830 829 806 796 797 800 804 803 801 801 801 802 803 805 806 807 808
658 663 668 674 681 687 689 689 691 694 698 701 704 709 710 713 717 716 734 752 743 732 736 742 746 747 748 751 753 755 756 755 762 768 766 767 768 768 772 771 772 781 780 781 792 798 798 797 795 790 792 796 799 803 798 792 797 803 802 798 795 799 802 806 812 815 819 826 832 828 821 830 827 806 802 804 802 802 798 797 800 800 802 804 805 807 807 809
658 663 669 675 681 686 689 692 695 696 699 700 704 708 710 715 717 728 745 741 732 734 736 741 747 746 748 754 758 757 757 759 760 763 768 768 767 767 768 767 770 780 786 788 796 801 799 797 797 796 797 799 801 804 801 795 795 799 801 801 804 807 806 809 811 813 826 834 833 831 825 829 830 808 799 804 798 793 792 796 801 802 803 805 805 806 807 809
658 664 670 674 680 683 685 691 694 695 698 699 704 708 712 716 718 735 744 727 724 738 740 743 745 744 747 752 757 757 757 762 760 763 769 769 770 770 768 772 775 783 792 794 800 803 799 798 800 801 802 800 798 801 802 799 797 798 801 805 814 819 817 820 821 822 836 840 835 838 833 832 835 812 794 795 791 786 787 794 800 803 804 805 805 806 806 808
660 665 671 676 681 683 684 687 689 693 697 698 703 705 710 722 727 731 729 718 724 739 737 738 739 741 746 748 754 756 757 763 761 761 766 769 774 772 770 774 776 788 798 798 800 804 802 802 802 802 803 800 797 801 806 805 801 800 803 809 820 832 836 838 838 836 840 840 837 840 836 833 830 807 791 790 787 786 786 789 795 800 802 804 805 806 806 807
661 667 674 680 682 684 685 686 688 692 696 698 702 702 707 726 730 719 718 719 722 726 725 729 733 737 743 747 754 754 755 761 760 760 764 766 773 773 768 768 768 778 790 796 801 806 807 806 803 802 802 798 797 803 809 810 805 803 806 811 820 835 846 848 844 839 839 841 840 839 836 833 822 802 792 791 789 789 788 788 792 796 800 803 804 806 807 808
663 669 675 679 681 683 684 686 688 691 695 697 700 702 711 725 719 708 714 718 714 715 719 724 731 738 742 746 751 751 755 762 758 758 765 767 773 776 770 767 765 767 777 791 796 799 806 809 805 803 801 797 797 800 801 802 803 801 798 802 812 821 830 836 835 833 838 843 844 842 835 825 814 801 795 794 793 793 792 792 794 796 800 802 804 806 807 808
667 672 676 679 681 683 683 686 688 691 694 694 697 705 713 715 708 705 711 710 709 715 718 722 730 739 743 745 747 746 751 759 758 758 764 766 770 772 769 767 765 762 772 787 790 788 797 805 805 804 802 798 800 800 795 797 805 802 795 801 810 807 809 825 832 828 832 841 842 841 831 813 803 799 796 796 796 795 796 796 797 800 801 802 804 805 806 808
669 674 677 679 681 682 683 685 688 691 692 690 697 706 703 698 697 698 699 699 704 711 717 726 732 738 745 748 748 747 746 752 757 760 763 764 765 766 764 762 761 761 765 775 782 783 790 805 808 805 804 801 803 803 798 799 805 802 801 807 807 801 802 819 834 831 829 833 831 830 822 808 802 800 797 798 798 798 799 798 799 801 802 802 804 805 806 809
669 674 677 679 680 682 683 685 688 692 691 689 695 698 691 689 691 690 690 694 699 704 713 727 730 730 741 747 747 747 747 751 755 758 761 763 762 759 759 758 755 756 758 762 772 775 784 807 813 805 806 805 804 805 800 800 802 802 807 805 799 801 803 807 822 832 833 831 826 822 816 808 806 806 803 801 801 801 800 798 799 801 802 803 803 805 807 809
668 673 676 678 680 681 682 686 689 691 691 690 692 690 686 688 689 685 687 691 697 702 711 721 723 723 733 742 743 743 745 750 755 756 758 760 756 751 753 756 753 753 753 755 765 769 775 801 815 809 809 807 802 803 803 802 801 800 802 800 799 809 813 809 817 828 832 831 824 818 815 809 804 802 803 802 800 800 800 798 799 800 801 802 803 805 808 809
668 673 678 679 680 681 683 687 689 691 691 690 691 690 687 689 690 685 685 689 695 703 708 713 715 719 728 734 738 741 742 746 752 754 755 757 755 747 745 750 752 753 752 752 761 766 768 789 811 812 808 807 804 804 804 805 803 801 800 801 801 806 809 809 809 812 821 827 822 819 820 812 795 787 790 792 793 794 796 797 796 798 799 799 802 805 807 809
665 670 677 678 679 682 684 688 691 692 690 685 685 688 686 688 692 689 686 687 692 700 705 707 711 717 724 728 732 738 739 743 749 750 751 752 754 751 744 745 751 753 754 753 758 765 768 779 802 814 810 808 808 806 803 802 803 804 805 806 806 805 806 808 804 802 809 818 817 819 821 806 785 778 778 779 783 786 789 792 793 795 796 797 800 803 806 808
662 668 676 678 679 682 685 689 691 688 685 681 682 686 686 688 692 693 690 688 690 696 698 702 708 714 719 724 729 733 736 743 746 746 748 749 751 753 745 741 747 751 755 758 759 765 770 779 800 816 814 810 808 805 803 801 800 801 802 803 803 804 807 813 814 806 804 811 812 815 818 799 779 781 781 775 778 779 782 787 789 791 793 795 798 802 804 807
661 667 675 676 678 681 683 687 687 682 683 682 681 684 686 687 690 693 693 689 691 695 695 699 705 710 714 719 725 729 733 741 744 741 744 746 744 746 743 739 744 747 752 760 762 763 770 784 803 814 812 809 809 809 810 809 803 800 801 799 797 801 803 810 817 810 806 812 810 813 817 798 780 786 787 781 781 778 778 783 786 789 792 794 798 800 803 806
663 669 675 676 678 680 681 685 686 685 684 682 680 684 686 685 688 693 692 691 694 697 697 700 703 708 712 715 721 728 731 739 742 738 741 743 742 745 744 740 743 746 751 759 763 762 768 781 799 810 810 808 807 807 809 809 806 802 801 798 797 798 797 800 806 804 807 814 809 815 819 796 780 788 789 786 785 779 777 780 783 788 791 793 797 800 803 806
666 671 676 678 680 682 680 678 679 682 682 680 683 688 687 686 689 692 692 692 695 695 698 702 703 705 710 712 717 723 726 735 741 740 739 740 743 750 748 741 742 746 750 753 754 759 767 776 790 807 814 812 811 811 808 808 807 802 798 797 798 797 796 800 802 802 809 810 805 814 817 793 782 789 789 786 784 779 779 780 781 786 790 793 797 800 803 806
664 671 678 681 683 683 680 675 672 676 679 680 685 688 688 690 693 691 690 694 695 693 697 704 703 704 708 711 717 721 723 729 737 740 741 741 747 753 750 743 742 744 747 748 747 753 765 771 778 793 805 808 808 806 800 798 803 803 797 796 797 796 796 798 802 807 812 808 802 807 804 788 784 788 787 786 785 781 780 781 782 785 789 792 795 798 801 804
660 668 678 684 686 685 681 677 673 673 676 679 684 686 687 693 696 692 691 696 698 695 698 704 703 705 710 712 719 724 725 728 733 736 740 743 749 754 753 749 746 746 748 748 748 754 763 768 769 774 782 784 784 782 779 783 794 799 796 794 794 795 794 794 801 806 805 804 805 800 790 786 786 785 784 786 786 784 781 781 783 785 788 791 794 797 800 802
659 664 669 675 683 685 683 679 672 670 672 676 680 683 685 692 696 695 696 697 698 698 701 705 703 705 711 713 718 724 726 728 732 734 738 745 752 756 756 753 751 751 750 749 750 755 763 769 768 767 768 767 767 768 769 775 783 787 789 792 793 795 796 797 800 797 794 803 808 795 785 787 785 779 778 781 785 786 783 782 781 783 786 790 793 797 800 802
661 666 668 667 670 674 677 676 670 668 670 674 677 680 685 692 694 695 698 699 698 698 702 707 706 704 706 709 714 722 727 731 735 734 737 747 753 756 757 756 756 756 753 752 753 755 762 769 767 766 768 766 763 764 766 770 775 777 783 788 791 795 797 798 796 789 789 799 798 785 782 785 780 776 773 774 779 781 779 778 779 780 785 789 793 797 800 802
666 669 672 670 667 666 670 672 670 669 671 674 678 679 683 689 691 692 696 700 702 700 699 705 708 705 704 706 709 718 724 727 732 734 736 744 749 751 755 757 757 758 756 754 756 757 761 766 765 766 770 769 767 767 767 769 773 774 778 782 787 793 794 793 791 786 787 790 784 778 783 782 775 773 769 768 773 775 775 777 778 780 784 788 792 795 798 800
671 671 671 670 670 668 670 673 672 672 672 674 678 679 680 685 688 690 693 696 700 701 699 701 704 704 704 706 708 713 715 715 721 729 734 741 746 746 749 751 754 759 759 757 760 761 763 766 766 767 773 774 773 773 772 773 774 775 777 779 783 790 793 792 790 785 788 791 784 783 788 783 771 767 765 765 769 772 775 777 777 779 782 786 790 793 795 796
674 675 671 670 673 675 673 672 672 672 673 675 677 678 678 681 684 688 693 694 693 696 697 698 702 704 706 707 707 710 710 709 713 721 725 730 734 736 739 742 749 758 761 760 762 763 766 770 769 769 776 778 778 780 780 778 779 781 781 779 780 786 788 787 784 782 785 789 788 791 792 780 767 764 765 767 769 771 773 775 776 778 781 783 786 788 790 792
675 676 673 670 677 681 677 672 672 673 673 673 673 675 677 678 680 685 693 697 693 693 695 695 699 705 707 710 711 710 711 711 713 718 721 723 726 730 734 737 741 748 755 760 763 763 765 771 774 774 776 781 787 789 782 781 787 788 780 774 774 777 779 780 780 779 779 781 785 788 781 768 763 764 766 769 771 770 770 771 773 775 778 781 782 783 786 787